STARLINK-33702, 63591

Orbit data source: Space-Track

STARLINK-33702, 63591 is a payload satellite owned by SpaceX/Seattle (US) in LEO that was launched on Mon, 14 Apr 2025 UTC via an FALCON 9 launch vehicle from the Air Force Eastern Test Range (AFETR). Payload-class satellites include a variety of spacecraft equipped with specific instruments for various scientific and technological missions. These include communications satellites like Starlink; space stations such as the ISS; scientific satellites like the Hubble; Earth observation satellites from companies like Planet Labs, Umbra, and HawkEye 360; GPS; miniature CubeSats for education and research; and military/defense satellites.

Loading next visibility...
Identifier
63591, 2025-076Y
Orbit
LEO
Country
Flag of USUS
Related business
Manufacturer
SpaceX/Seattle
Mission
Operational spacecraft
Bus & Motor
STARLINK V2MO, Unknown motor
Mass
575 kg wet, ~530 kg dry
Launch date (UTC)
2025-04-14 (6 months ago)
Launch vehicle
FALCON 9
Launch site
Air Force Eastern Test Range (AFETR)
Object type
Payload
Rocket body
Debris
Shape & HBR
Unknown shape, 17.7 m
Radar Cross Section
Large (>1 m²)

Expand to show TLE details & history
Last TLE update: 16 hours ago

TLE from 16 hours ago
0 STARLINK-33702
1 63591U 25076Y   25286.83459955  .00047933  00000-0  17395-2 0  9998
2 63591  43.0004  70.8015 0001635 266.4728  93.5937 15.27591617 29379
Epoch: 2025-10-13T20:01Z
TLE epoch observation values (Epoch: 2025-10-13T20:01:49.401Z)
Latitude
0.00002°
Longitude
107.714°
Altitude
482.86 km
Speed
7.626 km/s
True Right ascension
04h 43m 12s
True Declination
0° 00' 00"
Sunlit
Object was in full shadow at epoch
Visualization orbit readout
Latitude
Unknown
Longitude
Unknown
Altitude
Unknown
Speed
Unknown
Apparent Right ascension
Unknown
Apparent Declination
Unknown
Sunlit
N/A
Visualization observer readout
Local Sidereal Time
06:27:28
Azimuth
Unknown
Elevation
Unknown
Doppler factor
Unknown
Orbital elements
Apogee altitude
486.082 km
Perigee altitude
483.837 km
Semi-major axis
6,863.096 km
Eccentricity
0.00016
Inclination
43.0004°
RAAN
70.8015°
Arg. of periapsis
266.4728°
True anomaly
93.6124°
Mean anomaly
93.5937°
Eccentric anomaly
93.60305°
Mean motion
3.81736 °/min
Orbital period
94.31 mins
BSTAR
0.0017395
Loading maneuver chart data...
Computing Atmospheric mass density...
Loading historical data...
Loading historical data...
Loading historical data...
Loading historical data...
Loading historical data...
Loading historical data...
Loading historical data...

Documentation

Showing up to 5 results
|